Theta_e
326 326 326 325 325 325 325 323 322 321 321 321 321 322 323 323 322 319 317 315 314 313 313 313 314 315 306 299 302 313 326 324 313 308 305 304 302 300 296 298 299 298 300 303 304 304 303
325 324 324 324 324 325 325 323 322 320 320 320 320 320 321 321 321 318 316 314 313 312 313 313 313 314 302 295 312 312 314 308 308 306 304 304 302 303 299 298 296 300 300 301 301 302 303
325 324 324 323 323 323 323 322 321 320 320 320 319 320 320 320 319 317 316 314 312 312 312 312 313 309 300 299 307 309 310 309 308 307 303 305 304 300 300 297 301 300 296 298 301 300 301
325 324 324 322 322 322 322 321 321 320 320 319 320 319 318 318 317 316 314 312 311 312 312 313 313 305 294 308 307 307 308 307 309 308 306 306 306 302 300 301 300 296 295 290 297 300 302
320 324 324 323 322 321 321 321 321 320 320 319 319 319 318 316 315 314 313 311 310 312 313 313 305 299 296 313 307 309 309 306 307 309 307 311 305 300 299 294 291 291 287 289 294 300 299
318 321 324 323 322 321 321 320 320 320 319 319 319 319 317 316 314 313 311 310 310 310 307 308 306 298 303 305 309 307 306 309 306 306 304 302 298 294 292 290 285 287 288 291 291 296 296
318 318 320 323 322 322 321 321 319 319 318 319 319 318 317 315 313 312 307 304 302 302 300 301 301 301 305 308 310 304 307 306 304 302 294 298 292 290 291 293 295 294 292 291 294 298 295
314 316 317 322 322 322 322 321 319 318 318 319 318 318 316 315 313 310 305 304 309 303 296 303 303 304 308 310 303 307 308 299 298 293 297 294 291 296 298 296 295 294 292 292 294 297 296
312 313 315 316 321 322 322 321 319 318 318 318 318 317 315 312 310 305 302 305 310 308 298 302 305 305 305 307 302 304 306 300 296 293 294 292 294 299 297 295 294 293 291 291 290 292 292
311 312 314 315 317 321 321 321 320 318 317 317 317 316 312 309 303 302 300 306 310 312 293 298 301 305 308 308 302 309 310 302 296 294 294 292 297 296 294 293 293 289 293 291 289 286 283
310 311 312 313 315 318 319 320 319 319 317 317 316 314 309 311 303 300 305 307 312 308 281 301 303 310 305 302 300 302 309 300 296 294 293 290 292 291 290 292 294 290 293 290 289 285 282
309 310 311 311 312 313 318 318 318 318 317 316 315 311 309 309 305 307 308 311 307 287 280 294 301 295 297 301 297 297 297 300 299 294 293 291 295 293 292 294 294 294 290 289 287 284 279
308 309 310 310 310 311 317 317 317 316 316 315 313 310 310 307 301 311 310 303 286 282 296 293 292 293 294 294 295 294 293 291 289 285 285 289 290 293 295 289 292 290 286 279 278 277 277
307 308 308 310 310 309 311 317 316 316 315 314 310 308 312 309 311 309 306 293 281 289 290 297 296 292 289 293 293 294 291 288 293 290 286 283 281 289 294 291 289 289 287 281 276 276 279
307 307 308 309 309 309 309 315 315 315 314 312 309 305 303 307 310 309 299 285 286 290 294 294 295 290 288 291 291 292 291 289 289 289 284 282 283 291 292 292 292 289 285 289 283 283 278
306 307 307 308 308 308 309 314 315 314 310 307 301 297 297 308 309 304 295 287 288 294 293 295 290 291 287 288 288 288 289 290 288 290 290 285 280 288 288 292 291 288 290 282 284 276 274
305 306 306 307 307 308 308 314 314 309 307 307 298 290 298 306 304 295 285 285 287 293 294 292 289 287 289 286 288 288 286 288 289 288 289 286 282 282 287 286 283 284 283 284 285 282 273
304 304 305 306 307 307 308 314 310 308 306 304 294 284 296 303 288 286 285 289 292 290 293 290 292 289 287 287 285 285 285 287 291 290 286 288 283 277 281 288 289 287 284 283 274 270 276
304 304 305 305 307 307 308 311 309 306 307 297 286 286 297 298 283 284 289 289 290 289 289 289 288 290 290 287 282 286 287 291 291 289 287 287 280 275 277 282 286 283 284 284 282 280 274
304 304 305 306 306 307 310 308 307 306 306 297 287 282 286 290 290 287 286 287 287 292 290 291 289 290 287 285 287 285 286 289 291 290 293 289 282 279 274 278 281 279 281 282 280 272 275
304 304 305 305 306 309 307 306 306 305 305 297 288 284 287 280 283 288 288 288 285 284 290 291 287 288 286 282 283 283 286 285 288 292 288 285 278 281 281 282 281 280 279 280 278 279 275
304 305 305 306 307 306 305 304 303 303 303 294 285 286 290 289 289 287 287 286 285 285 287 285 285 287 287 283 284 280 282 283 282 284 283 283 276 279 277 280 279 277 278 279 279 279 278
306 306 306 305 301 301 302 302 301 301 300 290 293 295 291 288 286 284 284 287 286 288 289 289 288 285 284 286 287 287 286 285 285 282 280 280 278 276 271 277 276 269 276 277 278 279 278
303 303 302 302 302 302 303 303 302 303 301 296 294 293 288 282 284 284 287 288 287 288 286 289 289 285 286 289 288 286 285 284 283 282 283 278 277 274 268 273 257 274 280 280 279 280 281
302 303 303 302 302 301 302 303 303 303 302 295 294 292 287 282 284 285 286 286 288 289 286 285 286 288 288 285 279 277 276 278 280 281 280 281 277 270 265 269 273 277 280 279 278 278 284
303 303 302 301 301 301 302 302 302 302 301 296 294 295 290 285 283 289 286 285 281 281 282 284 288 288 286 279 274 270 269 274 274 277 282 280 279 274 270 269 265 275 282 286 285 275 285
302 302 302 301 301 301 302 302 302 302 301 297 293 295 291 284 287 288 282 282 285 282 279 282 283 283 284 273 272 271 272 277 272 273 274 275 272 271 272 270 275 283 285 287 273 275 286
301 301 301 301 300 301 301 301 302 302 301 296 291 295 291 285 287 289 289 285 284 281 276 281 279 279 274 268 270 269 273 275 275 276 276 275 269 266 269 265 268 286 285 279 282 286 287
300 300 300 300 300 300 300 300 301 302 301 296 288 293 294 286 286 291 291 291 290 288 283 279 278 278 275 271 269 271 270 270 275 271 279 271 276 273 277 275 284 286 286 288 288 287 288
Wind_Speed
27 26 25 24 23 22 22 21 19 18 17 16 15 14 12 11 11 10 10 9 8 6 6 10 12 14 7 4 12 7 9 4 4 2 3 3 6 2 3 3 7 6 7 8 8 10 7
28 27 27 26 25 25 24 23 21 20 19 18 17 15 13 13 12 11 10 9 9 8 6 7 10 11 1 6 6 5 1 1 5 4 3 1 4 4 7 5 5 5 8 12 9 11 8
30 29 28 28 27 26 26 24 22 21 21 20 19 17 14 13 14 12 10 9 10 10 6 6 8 4 4 18 6 9 5 6 6 6 5 5 4 3 5 9 4 3 9 10 13 5 8
29 31 30 29 28 28 27 26 24 23 22 21 20 18 16 15 13 12 11 9 10 10 7 5 2 2 10 7 7 11 6 6 9 9 5 7 6 5 5 4 8 8 6 5 0 4 8
24 28 31 31 29 29 28 27 26 25 23 22 21 19 17 16 13 12 11 9 9 10 8 5 2 3 13 9 5 10 9 6 5 1 2 5 3 6 0 3 5 2 6 5 13 7 6
25 22 30 32 30 31 30 29 28 26 25 23 22 20 19 18 15 13 8 6 9 6 6 6 4 1 9 7 5 3 6 7 2 2 3 3 1 3 3 4 7 6 5 5 6 8 1
23 24 26 30 32 32 32 30 29 28 26 25 23 21 19 18 16 12 6 3 4 3 5 12 10 6 6 4 2 0 2 2 1 3 4 3 3 12 8 9 8 7 11 14 16 16 8
23 21 24 28 32 33 33 32 30 29 28 26 24 23 20 18 16 15 4 4 3 1 9 15 18 18 18 10 7 19 4 4 6 7 5 3 11 14 8 9 12 14 16 18 11 11 7
27 24 23 26 24 32 33 32 30 29 28 27 27 25 22 19 19 9 6 9 1 6 8 9 14 17 16 15 18 21 8 7 7 6 7 15 9 9 11 11 14 16 12 10 9 5 5
29 27 23 24 27 29 34 33 31 30 29 29 29 26 25 25 11 7 5 7 5 8 6 6 9 10 14 13 14 23 20 10 6 14 10 13 14 16 17 17 10 16 5 3 0 5 3
30 29 25 24 24 28 29 32 31 31 31 29 29 29 35 28 11 7 7 12 11 3 5 2 5 6 6 16 3 7 14 6 22 12 8 10 5 6 6 8 9 8 6 5 4 2 0
32 32 28 24 24 25 29 27 31 32 32 32 31 35 35 10 4 7 15 15 6 4 11 7 4 5 6 15 2 3 6 5 7 5 8 7 4 5 7 6 6 5 3 3 2 3 8
33 33 32 28 26 24 28 29 29 28 30 32 35 38 28 13 10 16 18 7 4 8 1 7 6 6 9 10 10 4 6 7 7 6 6 2 7 4 4 5 2 5 5 3 3 1 7
34 34 34 31 27 23 24 30 31 27 29 31 36 37 24 11 18 20 10 4 11 11 13 2 1 9 11 8 8 9 6 5 8 5 1 6 3 1 4 3 5 3 7 6 6 4 3
34 34 33 34 29 27 25 27 25 26 29 33 32 8 5 8 23 16 12 11 11 9 8 6 4 3 6 11 6 13 11 8 2 1 8 4 6 4 9 2 2 1 5 1 4 3 0
37 36 35 35 31 29 26 32 31 27 31 37 10 5 2 13 18 14 14 13 9 5 1 7 16 13 12 6 7 5 6 4 6 2 3 2 0 2 2 1 9 6 3 4 3 2 6
39 39 37 35 33 29 27 33 30 40 45 31 7 8 2 9 12 7 8 6 6 10 10 8 12 14 15 8 4 5 4 1 3 3 8 3 5 4 3 3 3 5 3 5 2 4 5
42 40 37 35 33 30 28 31 41 47 42 18 6 6 7 12 8 3 7 9 10 18 12 4 5 5 8 8 6 8 8 2 4 3 5 1 4 4 4 2 4 6 6 5 6 6 3
47 43 38 38 34 30 28 35 45 45 38 9 6 5 4 5 8 9 7 10 8 12 12 10 8 5 5 8 4 2 6 2 5 4 6 3 2 3 2 3 4 2 3 3 2 1 8
51 44 39 37 33 28 31 40 44 44 28 9 8 8 3 1 0 8 9 7 8 7 6 5 7 5 6 7 4 5 4 6 4 6 8 6 3 5 6 5 1 5 8 6 3 3 7
58 43 39 37 28 33 40 42 37 22 21 5 4 4 6 10 6 11 5 6 12 9 7 12 4 9 7 4 5 4 4 3 7 9 3 4 5 3 4 4 2 9 13 9 9 13 12
48 46 39 29 37 38 33 33 26 19 16 5 7 9 5 12 17 16 5 7 10 8 9 5 10 9 5 7 6 6 6 2 3 3 3 1 2 0 4 3 7 15 15 14 15 19 20
38 35 35 44 44 41 33 24 20 12 5 6 3 5 8 10 10 9 4 8 14 12 5 9 12 7 6 5 6 6 6 4 4 5 3 4 4 3 6 2 4 11 10 9 8 14 15
53 51 50 45 38 35 31 25 28 23 18 6 2 4 8 10 7 5 16 14 13 8 7 8 9 6 3 9 8 6 5 3 5 6 6 6 6 3 4 4 3 9 1 6 12 15 20
43 41 42 40 35 30 27 23 22 22 17 6 3 5 5 8 11 12 13 9 10 9 11 9 3 9 8 7 5 4 3 4 6 11 11 11 5 2 3 4 8 14 1 1 1 14 11
36 36 34 31 27 25 28 28 27 22 19 8 4 2 6 10 2 10 12 13 8 7 3 6 5 3 7 4 5 4 3 1 3 4 5 8 7 6 4 4 6 6 4 4 3 8 2
33 32 30 28 27 29 31 29 25 23 22 10 5 5 7 10 2 8 5 11 6 5 5 4 4 5 5 3 3 3 3 2 3 4 3 3 1 10 10 7 6 9 6 2 3 7 3
30 30 29 27 27 27 26 26 24 22 20 11 3 7 6 5 6 8 5 6 5 4 6 4 6 5 4 5 4 4 3 4 3 3 3 4 4 4 1 3 9 5 6 4 8 5 3
28 27 26 26 25 25 25 26 24 19 14 8 6 3 3 7 4 3 6 6 7 7 8 3 6 3 4 5 1 3 2 1 2 3 2 2 6 4 5 4 6 13 8 19 6 6 5
Wind_Direction
224 221 218 216 215 217 219 217 214 209 209 209 212 213 219 202 222 234 252 272 291 304 324 326 334 328 350 353 248 266 229 216 299 231 233 309 315 286 248 276 338 226 253 284 275 294 269
225 220 219 217 214 214 219 220 214 210 208 207 210 210 209 198 212 225 243 266 281 289 306 324 326 317 342 265 259 266 3 149 244 266 247 205 260 300 267 265 231 285 299 294 294 288 265
225 223 220 218 216 214 215 217 216 211 208 207 208 207 204 205 197 213 230 252 273 281 302 319 310 285 242 248 252 282 290 242 234 224 258 215 221 158 326 323 289 308 315 311 286 259 277
241 224 220 219 216 214 212 212 211 213 209 207 207 205 199 200 202 198 221 243 267 287 301 292 290 246 248 252 265 273 229 249 226 233 223 250 209 201 172 273 336 340 314 308 108 320 274
262 252 223 219 216 214 213 212 211 211 209 204 204 202 196 195 193 197 211 244 271 282 278 231 200 210 268 294 247 253 195 234 284 299 210 238 165 203 16 73 338 316 254 247 305 183 244
262 267 246 220 216 215 213 211 210 209 207 202 200 198 193 191 186 190 194 232 267 318 244 193 249 329 264 245 241 201 166 168 139 16 21 171 40 241 72 110 235 224 230 267 241 286 152
262 258 264 242 217 214 213 212 210 207 202 199 197 192 192 186 179 168 139 263 289 255 231 199 185 227 287 239 257 328 183 108 128 140 179 246 147 243 200 206 227 251 262 254 268 279 288
268 263 268 254 231 213 212 212 210 207 202 200 194 188 183 179 166 146 147 181 261 348 285 229 247 245 261 286 299 285 203 185 165 221 173 249 227 243 226 217 232 243 250 265 266 252 272
257 258 261 262 252 226 211 211 209 206 202 195 189 186 171 156 135 132 193 172 43 14 265 234 232 238 232 200 228 239 198 186 193 206 211 225 216 218 248 258 256 248 250 271 270 308 292
256 251 250 256 257 243 218 208 206 204 201 197 186 180 150 135 135 146 201 168 62 75 285 252 224 244 219 224 257 226 233 180 188 234 223 252 225 231 244 253 244 259 155 144 21 46 250
256 248 241 248 247 246 236 208 205 200 196 193 185 166 148 156 143 173 164 136 108 71 267 337 205 184 192 176 206 213 199 174 220 208 166 220 205 178 207 222 218 241 176 154 178 211 338
251 248 237 235 247 258 226 222 209 203 192 187 179 162 158 162 112 154 133 126 104 101 241 284 236 185 116 196 257 114 126 97 157 205 252 220 279 184 209 223 185 174 131 47 69 124 260
249 242 238 237 238 244 236 214 208 199 193 184 168 164 165 154 164 152 134 115 112 211 156 223 198 176 186 178 206 156 151 161 161 166 224 246 221 242 237 252 67 153 85 341 324 133 238
244 239 237 234 231 238 247 217 201 196 194 177 166 164 174 166 145 150 142 111 205 187 202 76 264 186 191 170 202 201 169 166 224 193 117 181 352 199 357 93 161 104 154 169 211 200 292
240 235 234 229 227 230 234 221 196 193 186 168 157 154 131 162 157 157 164 205 209 191 204 199 250 246 200 207 193 193 204 191 87 41 175 146 165 101 55 48 62 98 57 165 89 52 281
237 234 230 226 226 224 230 226 200 171 141 138 134 108 15 159 160 167 195 204 200 223 168 198 197 175 205 176 161 135 159 10 126 146 155 142 85 42 41 152 36 95 168 95 72 248 238
236 231 226 224 221 218 219 218 185 148 148 139 115 111 202 153 138 168 195 174 170 208 159 180 194 179 199 185 183 130 103 334 137 104 81 101 118 278 98 92 109 26 55 64 96 172 204
231 225 222 219 215 216 213 208 161 153 148 125 107 123 198 176 133 174 178 164 165 172 156 165 174 154 171 142 148 156 198 129 105 134 99 206 137 192 204 114 155 174 180 156 137 272 240
223 218 216 212 208 211 210 185 158 153 151 113 94 90 208 223 158 173 150 150 147 151 159 164 165 184 166 169 126 165 122 54 92 89 144 178 72 21 293 69 29 100 86 85 126 163 213
212 204 199 195 200 209 190 158 154 155 145 99 121 132 111 305 14 165 146 139 136 154 153 167 148 184 142 138 106 172 135 35 57 86 94 70 141 198 228 120 125 290 298 311 162 202 292
188 181 177 190 189 178 151 144 141 137 132 105 108 131 134 170 189 150 124 117 136 148 146 159 206 165 153 124 99 108 94 106 74 120 72 101 192 231 267 76 358 279 270 264 248 252 254
137 154 167 165 144 126 114 108 100 112 123 92 136 139 123 123 141 120 138 149 137 132 133 162 138 168 134 155 178 156 127 135 151 113 113 91 183 2 262 239 253 270 272 266 263 263 258
114 136 135 113 99 96 96 95 104 109 146 89 28 110 118 121 135 131 164 132 147 136 140 164 133 112 108 144 109 115 115 126 127 132 137 129 122 85 278 95 349 296 253 239 230 256 255
79 87 91 92 86 84 86 88 91 91 86 95 78 98 103 105 99 104 130 125 144 120 115 169 150 120 137 106 82 57 74 138 183 203 161 148 138 123 255 87 319 241 355 238 255 263 269
77 77 83 81 74 74 76 84 92 87 82 80 73 83 81 106 114 103 116 143 156 151 148 114 82 130 133 82 85 79 353 4 245 228 200 192 137 160 186 189 289 296 278 245 303 282 302
74 78 82 82 77 76 70 67 76 76 78 77 53 81 95 117 162 133 136 128 128 128 64 86 51 102 78 85 86 134 193 252 292 324 181 168 172 183 153 210 234 236 208 220 211 269 33
74 76 77 73 67 65 63 65 67 68 70 79 46 44 89 97 41 149 128 151 125 113 110 93 110 40 65 89 118 147 190 221 239 211 142 134 142 199 228 229 253 260 256 267 85 247 315
70 71 71 71 70 67 63 61 60 63 60 70 45 18 99 100 44 58 74 98 82 88 126 198 62 350 40 72 114 210 149 215 242 247 176 200 169 204 75 173 245 32 327 200 227 247 258
66 70 72 72 71 69 66 60 55 60 64 63 61 2 38 75 143 87 94 89 95 149 127 34 149 124 168 87 50 103 69 51 159 275 223 278 186 196 181 229 287 295 253 268 260 247 242